FW6402 Weather Reports


Display with metric or nautical units.
time (UTC)temp
F
wind
direction
speed
MPH
gust
MPH
rain 1hr
in
rain 24hr
in
rain mn
in
humidity
%
barometer
mb
20260903180436 63 270 1.0 4.0 0.00 0.67 0.11 81 1012.0
20260903175944 63 155 0.0 2.0 0.00 0.71 0.11 84 1012.0
20260903175423 62 192 1.0 3.0 0.00 0.71 0.11 83 1012.0
20260903174920 62 295 1.0 3.0 0.00 0.71 0.11 85 1012.0
20260903174418 62 257 0.0 3.0 0.00 0.71 0.11 86 1011.9
20260903173933 62 100 1.0 3.0 0.00 0.71 0.11 83 1011.8
20260903173430 62 345 1.0 4.0 0.00 0.71 0.11 84 1011.9
20260903172957 61 84 1.0 4.0 0.00 0.71 0.11 84 1011.9
20260903172434 61 194 0.0 3.0 0.00 0.71 0.11 87 1011.9
20260903171932 60 44 0.0 2.0 0.00 0.71 0.11 91 1012.0
20260903171437 59 56 1.0 2.0 0.00 0.71 0.11 90 1012.0
20260903170934 58 51 1.0 3.0 0.00 0.71 0.11 91 1012.2
20260903170441 58 150 0.0 3.0 0.00 0.71 0.11 92 1012.1
20260903165938 58 167 0.0 3.0 0.00 0.71 0.11 93 1012.2
20260903165452 58 271 0.0 1.0 0.00 0.71 0.11 94 1012.3
20260903164929 58 253 0.0 2.0 0.00 0.71 0.11 94 1012.3
20260903164437 57 223 0.0 2.0 0.00 0.71 0.11 94 1012.3
20260903163926 57 215 0.0 0.0 0.00 0.71 0.11 95 1012.3
20260903163506 57 79 0.0 0.0 0.00 0.71 0.11 96 1012.3
20260903162922 57 79 0.0 0.0 0.00 0.71 0.11 96 1012.3
20260903162418 56 79 0.0 1.0 0.00 0.71 0.11 96 1012.2
20260903161944 56 79 0.0 1.0 0.01 0.71 0.11 95 1012.3
20260903161443 56 79 0.0 2.0 0.01 0.71 0.11 96 1012.4
20260903160923 55 106 1.0 2.0 0.02 0.71 0.11 95 1012.4
20260903160456 55 63 0.0 0.0 0.02 0.71 0.11 95 1012.3
20260903155931 55 58 0.0 0.0 0.02 0.71 0.11 96 1012.3
20260903155439 55 57 0.0 0.0 0.03 0.71 0.11 96 1012.3
20260903154935 55 57 0.0 0.0 0.03 0.71 0.11 96 1012.3
20260903154442 55 57 0.0 0.0 0.04 0.71 0.11 96 1012.3
20260903153919 54 57 0.0 0.0 0.04 0.71 0.11 96 1012.3
20260903153437 54 57 0.0 0.0 0.05 0.71 0.11 96 1012.4
20260903152934 54 102 0.0 0.0 0.05 0.71 0.11 96 1012.4
20260903152430 54 102 0.0 0.0 0.05 0.71 0.11 96 1012.4
20260903151926 54 129 0.0 0.0 0.05 0.70 0.10 96 1012.4
20260903151424 54 109 0.0 0.0 0.04 0.69 0.09 96 1012.5
20260903150936 54 109 0.0 0.0 0.05 0.69 0.09 96 1012.5
20260903150442 54 90 0.0 0.0 0.05 0.69 0.09 96 1012.4
20260903145941 54 90 0.0 0.0 0.05 0.69 0.09 96 1012.3
20260903145457 54 92 0.0 0.0 0.04 0.68 0.08 96 1012.2
20260903145003 54 117 0.0 0.0 0.04 0.68 0.08 96 1012.3
20260903144440 54 241 0.0 0.0 0.03 0.67 0.07 96 1012.4
20260903143936 53 242 0.0 0.0 0.03 0.67 0.07 96 1012.3
20260903143431 53 242 0.0 0.0 0.02 0.66 0.06 96 1012.3
20260903142950 53 242 0.0 0.0 0.02 0.66 0.06 96 1012.2
20260903142437 53 239 0.0 0.0 0.02 0.66 0.06 96 1012.0
20260903141954 53 238 0.0 0.0 0.01 0.65 0.05 96 1012.1
20260903141454 53 258 0.0 0.0 0.01 0.65 0.05 96 1012.0
20260903140929 53 255 0.0 0.0 0.00 0.64 0.04 96 1011.8
20260903140420 53 13 0.0 0.0 0.00 0.64 0.04 96 1011.9
20260903135946 53 14 0.0 0.0 0.01 0.64 0.04 96 1011.9
20260903135444 53 290 0.0 0.0 0.01 0.64 0.04 96 1011.8
20260903134938 53 290 0.0 0.0 0.01 0.64 0.04 96 1011.9
20260903134454 53 289 0.0 0.0 0.01 0.64 0.04 96 1012.0
20260903133931 53 290 0.0 1.0 0.01 0.64 0.04 96 1011.9
20260903133432 53 290 0.0 1.0 0.01 0.64 0.04 96 1011.8
20260903132932 53 290 0.0 1.0 0.01 0.64 0.04 96 1011.7
20260903132449 53 331 0.0 0.0 0.01 0.64 0.04 96 1011.6
20260903131929 53 331 0.0 0.0 0.01 0.64 0.04 96 1011.6
20260903131426 53 331 0.0 0.0 0.01 0.64 0.04 96 1011.7
20260903130922 53 331 0.0 1.0 0.01 0.64 0.04 96 1011.7
20260903130436 53 331 0.0 2.0 0.01 0.64 0.04 96 1011.7
20260903125933 53 330 0.0 2.0 0.00 0.63 0.03 96 1011.7
20260903125431 53 63 0.0 0.0 0.00 0.63 0.03 96 1011.7
20260903124935 52 63 0.0 0.0 0.00 0.63 0.03 96 1011.7
20260903124433 52 68 0.0 0.0 0.00 0.63 0.03 96 1011.7
20260903123934 52 68 0.0 0.0 0.00 0.63 0.03 96 1011.7
20260903123429 52 81 0.0 0.0 0.00 0.63 0.03 96 1011.7
20260903122918 52 146 0.0 1.0 0.00 0.63 0.03 96 1011.7
20260903122446 52 146 0.0 1.0 0.00 0.63 0.03 96 1011.7
20260903121940 52 272 0.0 2.0 0.00 0.63 0.03 96 1011.7
20260903121437 52 137 0.0 2.0 0.00 0.63 0.03 96 1011.6
20260903120934 52 70 0.0 2.0 0.00 0.63 0.03 96 1011.7
20260903120433 52 188 0.0 0.0 0.00 0.63 0.03 96 1011.9
20260903115939 52 189 0.0 0.0 0.00 0.63 0.03 96 1012.0
20260903115435 52 188 0.0 0.0 0.00 0.63 0.03 96 1012.0
20260903114931 52 189 0.0 0.0 0.00 0.63 0.03 96 1011.9
20260903114430 52 189 0.0 0.0 0.00 0.63 0.03 96 1011.9
20260903113949 52 189 0.0 1.0 0.00 0.63 0.03 96 1011.8
20260903113423 52 230 0.0 2.0 0.00 0.63 0.03 96 1011.9
20260903112943 52 215 0.0 1.0 0.00 0.63 0.03 96 1011.9
20260903112442 52 226 0.0 1.0 0.00 0.63 0.03 96 1011.8
20260903111938 52 176 0.0 0.0 0.00 0.63 0.03 96 1011.8
20260903111435 52 215 0.0 0.0 0.00 0.63 0.03 96 1011.8
20260903110932 52 215 0.0 2.0 0.00 0.63 0.03 96 1011.9
20260903110441 53 215 0.0 2.0 0.00 0.63 0.03 96 1011.9
20260903105936 53 227 0.0 0.0 0.00 0.63 0.03 96 1011.9
20260903105434 53 227 0.0 1.0 0.00 0.63 0.03 96 1011.9
20260903104932 53 227 0.0 1.0 0.00 0.63 0.03 96 1011.9
20260903104425 53 110 0.0 1.0 0.00 0.63 0.03 96 1011.9
20260903103923 53 185 0.0 0.0 0.00 0.63 0.03 95 1012.0
20260903103444 53 185 0.0 0.0 0.00 0.63 0.03 95 1012.0
20260903102944 53 185 0.0 1.0 0.00 0.63 0.03 95 1012.1
20260903102422 53 185 0.0 1.0 0.00 0.63 0.03 95 1012.0
20260903101921 53 186 0.0 3.0 0.00 0.63 0.03 95 1012.0
20260903101437 53 146 0.0 3.0 0.00 0.63 0.03 95 1011.9
20260903100935 53 255 0.0 1.0 0.00 0.63 0.03 95 1011.8
20260903100443 54 255 0.0 1.0 0.00 0.63 0.03 95 1011.7
20260903095942 54 252 0.0 0.0 0.00 0.63 0.03 95 1011.7
20260903095440 54 252 0.0 1.0 0.01 0.63 0.03 95 1011.8
20260903094936 54 252 0.0 1.0 0.01 0.63 0.03 95 1011.8
20260903094430 54 252 0.0 1.0 0.01 0.63 0.03 95 1011.8
20260903093937 54 264 0.0 0.0 0.01 0.63 0.03 95 1011.8
20260903093435 54 265 0.0 0.0 0.01 0.63 0.03 95 1011.8
20260903092932 54 261 0.0 0.0 0.01 0.63 0.03 95 1011.9
20260903092450 54 249 0.0 0.0 0.01 0.63 0.03 95 1011.8
20260903091954 54 249 0.0 0.0 0.01 0.63 0.03 95 1011.8
20260903091428 55 263 0.0 0.0 0.01 0.63 0.03 95 1011.9
20260903090939 55 263 0.0 0.0 0.01 0.63 0.03 95 1011.9
20260903090425 55 264 0.0 0.0 0.01 0.63 0.03 95 1011.9
20260903085919 55 264 0.0 0.0 0.01 0.63 0.03 95 1012.0
20260903085506 55 264 0.0 0.0 0.00 0.62 0.02 95 1012.0
20260903084943 55 264 0.0 0.0 0.00 0.62 0.02 95 1012.1
20260903084443 55 264 0.0 0.0 0.01 0.62 0.02 95 1012.0
20260903083922 55 264 0.0 0.0 0.01 0.62 0.02 95 1012.0
20260903083420 55 264 0.0 0.0 0.01 0.62 0.02 95 1012.0
20260903082919 55 264 0.0 0.0 0.01 0.62 0.02 95 1012.1
20260903082436 55 264 0.0 0.0 0.02 0.62 0.02 95 1012.1
20260903081934 55 264 0.0 0.0 0.02 0.62 0.02 95 1012.1
20260903081442 55 252 0.0 0.0 0.02 0.62 0.02 95 1012.1
20260903080940 55 252 0.0 0.0 0.02 0.62 0.02 95 1012.1
20260903080419 55 253 0.0 0.0 0.02 0.62 0.02 95 1012.2
20260903075934 55 253 0.0 0.0 0.02 0.62 0.02 95 1012.2
20260903075433 55 251 0.0 0.0 0.02 0.62 0.02 95 1012.1
20260903075000 55 252 0.0 0.0 0.03 0.62 0.02 95 1012.2
20260903074436 55 252 0.0 0.0 0.02 0.61 0.01 95 1012.3
20260903073935 55 252 0.0 0.0 0.02 0.61 0.01 95 1012.1
20260903073433 55 252 0.0 0.0 0.02 0.61 0.01 95 1012.1
20260903072930 55 277 0.0 1.0 0.02 0.61 0.01 95 1012.0
20260903072457 55 255 0.0 3.0 0.02 0.60 0.00 95 1012.0
20260903071933 55 236 1.0 3.0 0.03 0.60 0.00 95 1012.1
20260903071431 55 256 0.0 4.0 0.04 0.60 0.00 95 1012.0
20260903070925 55 34 1.0 4.0 0.04 0.60 0.00 95 1012.0
20260903070418 55 223 0.0 3.0 0.04 0.60 0.00 95 1011.9
20260903065943 55 259 0.0 3.0 0.04 0.60 0.60 95 1012.0
20260903065421 55 266 0.0 3.0 0.04 0.60 0.60 95 1012.1
20260903064939 55 125 1.0 3.0 0.03 0.59 0.59 95 1012.0
20260903064445 55 261 1.0 3.0 0.03 0.59 0.59 95 1012.1
20260903063919 55 273 0.0 1.0 0.03 0.59 0.59 95 1012.0
20260903063417 55 223 0.0 3.0 0.03 0.59 0.59 95 1012.1
20260903062935 55 250 1.0 3.0 0.03 0.59 0.59 95 1012.1
20260903062432 55 229 1.0 4.0 0.02 0.58 0.58 95 1012.1
20260903061926 55 262 1.0 3.0 0.00 0.56 0.57 95 1012.1
20260903061433 55 268 0.0 2.0 0.00 0.56 0.56 95 1012.0
20260903060930 55 277 1.0 2.0 0.00 0.56 0.56 95 1011.9
20260903060426 55 321 0.0 1.0 0.00 0.56 0.56 95 1011.9
20260903055937 55 342 0.0 1.0 0.00 0.56 0.56 95 1011.9
20260903055443 55 342 0.0 1.0 0.00 0.56 0.56 95 1011.9
20260903054941 55 251 0.0 1.0 0.00 0.56 0.56 95 1011.9
20260903054436 55 251 0.0 3.0 0.00 0.56 0.56 95 1011.9
20260903053934 55 227 1.0 3.0 0.00 0.56 0.56 95 1012.0
20260903053432 55 82 0.0 1.0 0.00 0.56 0.56 95 1012.1
20260903052929 55 282 0.0 1.0 0.00 0.56 0.56 95 1012.1
20260903052426 55 42 0.0 1.0 0.00 0.56 0.56 95 1012.1
20260903051944 55 53 0.0 1.0 0.00 0.56 0.56 95 1012.1
20260903051423 55 43 0.0 2.0 0.00 0.56 0.56 95 1012.0
20260903050921 55 35 0.0 0.0 0.00 0.56 0.56 95 1011.9
20260903050418 55 35 0.0 1.0 0.00 0.56 0.56 94 1011.9
20260903045935 56 35 0.0 2.0 0.00 0.56 0.56 94 1011.9
20260903045436 56 239 0.0 0.0 0.00 0.56 0.56 94 1011.9
20260903044951 56 240 0.0 0.0 0.00 0.56 0.56 94 1011.9
20260903044450 56 240 0.0 2.0 0.00 0.56 0.56 94 1011.9
20260903043937 56 240 0.0 2.0 0.00 0.56 0.56 94 1011.8
20260903043441 56 185 0.0 0.0 0.00 0.56 0.56 94 1011.7
20260903042939 57 185 0.0 1.0 0.00 0.56 0.56 94 1011.7
20260903042435 57 185 0.0 2.0 0.00 0.56 0.56 94 1011.7
20260903042003 57 224 0.0 2.0 0.00 0.56 0.56 94 1011.7
20260903041439 57 275 0.0 0.0 0.00 0.56 0.56 94 1011.6
20260903040935 57 39 0.0 1.0 0.00 0.56 0.56 94 1011.5
20260903040433 57 37 0.0 1.0 0.00 0.56 0.56 94 1011.5
20260903035929 57 67 0.0 3.0 0.00 0.56 0.56 94 1011.4
20260903035435 57 41 1.0 3.0 0.00 0.56 0.56 94 1011.4
20260903034930 57 106 0.0 3.0 0.00 0.56 0.56 94 1011.2
20260903034427 57 107 1.0 3.0 0.00 0.56 0.56 94 1011.3
20260903033944 57 35 0.0 2.0 0.00 0.56 0.56 94 1011.1
20260903033420 57 35 1.0 2.0 0.00 0.56 0.56 94 1011.0
20260903032937 57 11 0.0 3.0 0.00 0.56 0.56 94 1011.0
20260903032434 57 44 0.0 3.0 0.00 0.56 0.56 94 1010.9
20260903031940 57 279 0.0 2.0 0.00 0.56 0.56 94 1010.8
20260903031438 58 158 0.0 1.0 0.00 0.56 0.56 94 1010.8
20260903030935 58 24 0.0 1.0 0.00 0.56 0.56 94 1010.7
20260903030432 58 106 0.0 1.0 0.00 0.56 0.56 94 1010.8
20260903025928 58 200 0.0 1.0 0.00 0.56 0.56 94 1010.8
20260903025423 58 200 0.0 1.0 0.00 0.56 0.56 94 1010.7
20260903024923 58 288 0.0 1.0 0.00 0.56 0.56 94 1010.5
20260903024434 58 70 0.0 1.0 0.00 0.56 0.56 94 1010.4
20260903023940 58 236 0.0 2.0 0.00 0.56 0.56 94 1010.3
20260903023456 58 294 0.0 2.0 0.00 0.56 0.56 94 1010.3
20260903022933 58 250 0.0 1.0 0.00 0.56 0.56 94 1010.2
20260903022459 58 227 0.0 1.0 0.00 0.56 0.56 94 1010.3
20260903021935 59 129 0.0 2.0 0.00 0.56 0.56 94 1010.4
20260903021433 59 234 0.0 1.0 0.00 0.56 0.56 94 1010.3
20260903020928 59 235 0.0 4.0 0.00 0.56 0.56 94 1010.2
20260903020424 59 128 1.0 4.0 0.00 0.56 0.56 94 1010.0
20260903015924 59 255 0.0 2.0 0.00 0.56 0.56 94 1010.1
20260903015421 59 68 0.0 2.0 0.00 0.56 0.56 94 1010.0
20260903015005 59 165 0.0 1.0 0.00 0.56 0.56 94 1010.0
20260903014442 59 86 0.0 2.0 0.01 0.56 0.56 94 1009.8
20260903013918 59 214 0.0 2.0 0.01 0.56 0.56 94 1010.0
20260903013436 59 231 1.0 2.0 0.01 0.56 0.56 94 1010.1
20260903012921 59 246 0.0 1.0 0.01 0.56 0.56 94 1010.0
20260903012436 59 153 0.0 0.0 0.01 0.56 0.56 94 1009.9
20260903011935 59 151 0.0 1.0 0.01 0.56 0.56 94 1009.8
20260903011434 59 245 0.0 2.0 0.01 0.56 0.56 94 1009.8
20260903010932 59 259 0.0 2.0 0.01 0.56 0.56 94 1009.7
20260903010457 59 212 0.0 2.0 0.02 0.56 0.56 94 1009.7
20260903005933 59 227 0.0 2.0 0.02 0.56 0.56 94 1009.7
20260903005432 59 267 0.0 2.0 0.02 0.56 0.56 95 1009.7
20260903004957 59 250 0.0 2.0 0.03 0.56 0.56 95 1009.6
20260903004433 59 276 0.0 1.0 0.05 0.55 0.55 95 1009.6
20260903003932 59 234 0.0 1.0 0.09 0.55 0.55 95 1009.6
20260903003424 58 242 0.0 0.0 0.15 0.55 0.55 95 1009.4
20260903002943 58 233 0.0 0.0 0.18 0.55 0.55 95 1009.5
20260903002443 58 246 0.0 1.0 0.21 0.55 0.55 95 1009.5
20260903001939 58 260 0.0 2.0 0.21 0.55 0.55 95 1009.4
20260903001445 58 226 0.0 3.0 0.22 0.55 0.55 95 1009.5
20260903000923 58 257 0.0 3.0 0.23 0.55 0.55 95 1009.4
20260903000420 58 240 0.0 3.0 0.22 0.54 0.54 94 1009.5
20260902235937 58 238 1.0 3.0 0.22 0.54 0.54 94 1009.4
20260902235504 58 199 1.0 4.0 0.22 0.54 0.54 94 1009.4
20260902234921 58 226 0.0 4.0 0.21 0.53 0.53 94 1009.3
20260902234435 59 242 2.0 4.0 0.18 0.50 0.50 94 1009.3
20260902233933 59 253 1.0 4.0 0.14 0.46 0.46 94 1009.2
20260902233432 59 263 1.0 6.0 0.07 0.39 0.39 94 1009.2
20260902232930 59 278 1.0 4.0 0.05 0.37 0.37 93 1009.1
20260902232430 59 286 1.0 4.0 0.02 0.34 0.34 93 1009.1
20260902231926 59 246 3.0 4.0 0.01 0.33 0.33 93 1009.2
20260902231418 60 244 1.0 5.0 0.01 0.33 0.33 92 1009.1
20260902230918 60 272 1.0 5.0 0.00 0.32 0.32 91 1009.1
20260902230445 60 252 1.0 5.0 0.00 0.32 0.32 91 1009.1
20260902225941 60 32 1.0 5.0 0.00 0.32 0.32 91 1009.0
20260902225419 60 184 0.0 3.0 0.00 0.32 0.32 92 1008.9
20260902224933 60 278 1.0 4.0 0.00 0.32 0.32 91 1008.9
20260902224439 60 236 1.0 4.0 0.00 0.32 0.32 91 1008.8
20260902223938 60 230 1.0 5.0 0.00 0.32 0.32 92 1008.8
20260902223433 60 144 2.0 5.0 0.00 0.32 0.32 92 1008.8
20260902222950 60 252 0.0 4.0 0.00 0.32 0.32 92 1008.9
20260902222449 60 177 0.0 2.0 0.00 0.32 0.32 93 1008.8
20260902221918 60 233 0.0 3.0 0.00 0.32 0.32 92 1008.8
20260902221445 60 259 1.0 9.0 0.01 0.32 0.32 93 1008.9
20260902220922 60 53 1.0 6.0 0.01 0.32 0.32 93 1008.8
20260902220435 60 287 0.0 3.0 0.01 0.32 0.32 93 1008.8
20260902215933 60 81 0.0 2.0 0.01 0.32 0.32 93 1008.8
20260902215440 60 235 0.0 2.0 0.01 0.32 0.32 93 1008.7
20260902214937 60 242 0.0 2.0 0.01 0.32 0.32 93 1008.7
20260902214435 60 269 1.0 2.0 0.01 0.32 0.32 93 1008.7
20260902213934 60 231 0.0 1.0 0.01 0.32 0.32 93 1008.8
20260902213442 60 107 0.0 1.0 0.02 0.32 0.32 93 1008.7
20260902212937 60 223 0.0 2.0 0.02 0.32 0.32 92 1008.8
20260902212436 60 71 0.0 2.0 0.02 0.32 0.32 92 1008.8
20260902211931 60 68 0.0 4.0 0.03 0.32 0.32 92 1008.8
20260902211445 60 141 0.0 1.0 0.04 0.31 0.31 93 1008.8
20260902210924 60 141 0.0 5.0 0.05 0.31 0.31 93 1008.7
20260902210443 59 71 3.0 11.0 0.06 0.31 0.31 92 1008.7
20260902205919 59 238 0.0 11.0 0.07 0.31 0.31 92 1008.9
20260902205417 59 89 1.0 6.0 0.08 0.31 0.31 93 1008.7
20260902204935 59 90 0.0 2.0 0.10 0.31 0.31 93 1008.8
20260902204432 59 102 0.0 3.0 0.11 0.31 0.31 93 1008.6
20260902203936 59 108 1.0 5.0 0.13 0.31 0.31 92 1008.7
20260902203433 59 114 1.0 6.0 0.14 0.30 0.30 92 1008.4
20260902202927 59 61 1.0 4.0 0.16 0.30 0.30 92 1008.5
20260902202423 59 63 1.0 7.0 0.16 0.29 0.29 92 1008.4
20260902201925 59 105 3.0 7.0 0.16 0.28 0.28 92 1008.4
20260902201422 59 82 2.0 6.0 0.16 0.27 0.27 93 1008.5
20260902200934 59 106 2.0 6.0 0.15 0.26 0.26 93 1008.4
20260902200442 59 29 2.0 5.0 0.15 0.25 0.25 93 1008.4
20260902195938 59 70 1.0 4.0 0.15 0.24 0.24 92 1008.6
20260902195435 59 111 2.0 3.0 0.14 0.23 0.23 92 1008.8
20260902194931 59 91 1.0 3.0 0.13 0.21 0.21 92 1008.8
20260902194427 59 84 2.0 3.0 0.12 0.20 0.20 91 1008.9
20260902193928 59 122 1.0 2.0 0.10 0.18 0.18 91 1008.9
20260902193423 59 75 1.0 3.0 0.09 0.16 0.16 90 1008.9
20260902192942 59 96 2.0 3.0 0.07 0.14 0.14 90 1008.9
20260902192438 59 74 2.0 5.0 0.06 0.13 0.13 90 1008.9
20260902191957 59 44 2.0 5.0 0.06 0.12 0.12 90 1008.9
20260902191444 59 96 3.0 5.0 0.05 0.11 0.11 90 1008.8
20260902190921 59 101 1.0 3.0 0.06 0.11 0.11 90 1008.8
20260902190419 59 101 1.0 4.0 0.06 0.10 0.10 90 1008.7
20260902185946 59 125 2.0 4.0 0.06 0.09 0.09 89 1008.8
20260902185439 60 77 1.0 4.0 0.05 0.08 0.08 89 1008.9
20260902184936 60 88 2.0 4.0 0.05 0.08 0.08 88 1009.0
20260902184434 60 97 0.0 2.0 0.06 0.08 0.08 89 1009.2
20260902183933 60 103 1.0 4.0 0.06 0.07 0.07 89 1009.1
20260902183455 60 63 1.0 4.0 0.06 0.07 0.07 89 1009.3
20260902182931 60 61 0.0 2.0 0.06 0.07 0.07 90 1009.4
20260902182427 60 68 1.0 2.0 0.07 0.07 0.07 90 1009.5
20260902181919 60 91 0.0 1.0 0.06 0.06 0.06 90 1009.7
20260902181445 60 269 0.0 1.0 0.06 0.06 0.06 89 1009.6
20260902180939 60 278 0.0 3.0 0.05 0.05 0.05 88 1009.8